www.pogodaiklimat.ru
ПОГОДА в Кловисе
Время
и дата
19:56 29.01
20:56 29.01
21:14 29.01
21:56 29.01
22:26 29.01
22:56 29.01
23:29 29.01
23:56 29.01
00:56 30.01
01:56 30.01
02:56 30.01
03:56 30.01
04:10 30.01
04:21 30.01
04:56 30.01
05:20 30.01
05:56 30.01
06:09 30.01
06:19 30.01
06:56 30.01
07:25 30.01
07:39 30.01
07:56 30.01
08:13 30.01
08:28 30.01
08:45 30.01
08:56 30.01
09:53 30.01
09:56 30.01
10:56 30.01
11:56 30.01
12:31 30.01
12:41 30.01
12:56 30.01
13:34 30.01
13:41 30.01
13:56 30.01
14:42 30.01
14:49 30.01
14:56 30.01
15:56 30.01
16:05 30.01
16:56 30.01
17:35 30.01
17:56 30.01
18:37 30.01
18:56 30.01
19:56 30.01
Ветер
(напр.,м/с)
Видим. Явления Облачность Т
(С)
Тd
(С)
f
(%)
Тe
(С)
Тes
(С)
Комфортность P
(гПа)
Po
(гПа)
Тmin
(С)
Tmax
(С)
R
(мм)
R24
(мм)
S
(см)
В 4 13 км ясно -5.0 -7.2 85 -11 -11 1021.8 872.2
В 5 16 км ясно -5.6 -7.2 88 -13 -13 1023.3 873.1
В 6 16 км 8/8 360 м -6.0 -7.0 93 -14 -14 873.4
В 6 16 км 10/10 300 м -6.1 -7.8 88 -14 -14 1024.0 873.7
СВ 7 16 км 10/10 240 м -7.0 -8.0 93 -16 -16 873.7
СВ 6 16 км 10/10 240 м -7.8 -9.4 88 -16 -16 1024.1 873.7 -7.8 -2.2
СВ 7 16 км 10/10 240 м -8.0 -9.0 92 -17 -17 874.0
СВ 6 16 км 10/10 240 м -8.3 -9.4 92 -17 -17 1024.6 874.0
СВ 6 13 км 10/10 240 м -8.3 -10.0 88 -17 -17 1024.8 874.3
СВ 6 14 км 10/10 180 м -8.9 -10.0 92 -17 -17 1025.0 874.6
СВ 6 11 км слабый снег 10/10 120 m
[Ns]
-9.4 -10.6 91 -18 -18 1024.8 874.3
СВ 6 4 км слабый снег, дымка 10/10 120 m
[Ns]
-10.0 -10.6 95 -19 -19 1025.2 874.9
СВ 5 5 км слабый снег, дымка 10/10 120 m
[Ns]
-10.0 -11.0 92 -18 -18 874.6
СВ 5 3 км слабый снег, дымка 10/10 120 m
[Ns]
-10.0 -11.0 92 -18 -18 874.9
СВ 6 4 км слабый снег, дымка 10/10 120 m
[Ns]
-10.0 -11.1 92 -19 -19 1025.4 874.9 -10.0 -7.8
СВ 6 5 км слабый снег, дымка 10/10 120 m
[Ns]
-10.0 -11.0 92 -19 -19 874.9
СВ 6 5 км слабый снег, дымка 10/10 120 m
[Ns]
-10.6 -11.7 92 -19 -19 1026.3 875.1
В 5 4 км слабый снег, дымка 10/10 120 m
[Ns]
-11.0 -12.0 92 -19 -19 875.1
СВ 5 5 км слабый снег, дымка 10/10 120 m
[Ns]
-11.0 -12.0 92 -19 -19 875.1
СВ 5 3 км слабый снег, дымка 10/10 120 m
[Ns]
-10.6 -11.7 92 -19 -19 1026.7 875.4
В 4 3 км слабый снег, дымка 10/10 120 m
[Ns]
-11.0 -11.0 100 -18 -18 875.7
В 4 3 км слабый снег, дымка 10/10 120 m
[Ns]
-10.0 -11.0 92 -17 -17 876.0
В 4 3 км слабый снег, дымка 10/10 120 m
[Ns]
-10.0 -11.1 92 -17 -17 1027.4 876.0
В 3 3 км слабый снег, дымка 10/10 120 m
[Ns]
-10.0 -11.0 92 -16 -16 876.3
В 3 4 км слабый снег, дымка 10/10 120 m
[Ns]
-10.0 -11.0 92 -16 -16 876.3
В 3 3 км слабый снег, дымка 10/10 120 m
[Ns]
-9.0 -11.0 85 -15 -15 876.3
В 3 3 км слабый снег, дымка 10/10 120 m
[Ns]
-9.4 -10.6 91 -15 -15 1027.9 876.6
ЮВ 2 5 км дымка 10/10 120 м -9.0 -10.0 92 -14 -14 876.3
ЮВ 3 5 км дымка 10/10 120 м -8.9 -9.4 96 -15 -15 1027.8 876.3
В 2 5 км дымка 10/10 120 м -7.8 -8.9 92 -12 -12 1027.1 875.7 -10.6 -7.8
ЮВ 2 10 км дымка 10/10 120 м -7.2 -7.8 95 -12 -12 1026.1 874.9
ЮВ 3 4 км дымка 10/10 120 м -7.0 -8.0 93 -13 -13 874.3
нст 2 5 км дымка 10/10 120 м -7.0 -8.0 93 -12 -12 874.0
ЮВ 4 5 км дымка 10/10 120 м -6.7 -7.2 96 -13 -13 1024.4 873.7
Ю 3 3 км дымка 10/10 120 м -6.0 -7.0 93 -12 -12 873.1
ЮВ 4 2 км дымка 10/10 120 м -6.0 -7.0 93 -13 -13 872.8
Ю 4 2 км дымка 10/10 120 м -6.1 -6.7 96 -13 -13 1023.3 872.8
Ю 4 4 км дымка 10/10 120 м -5.0 -6.0 93 -12 -12 872.2
Ю 3 5 км дымка 10/10 120 м -5.0 -6.0 93 -11 -11 872.2
Ю 4 6 км дымка 10/10 120 м -4.4 -5.6 91 -11 -11 1022.4 872.2
Ю 2 13 км 10/10 120 м -5.0 -6.1 92 -9 -9 1022.9 872.5
Ю 3 11 км 10/10 180 м -5.0 -6.0 93 -11 -11 872.5
ЮВ 4 13 км 10/10 180 м -5.0 -6.1 92 -12 -12 1023.6 872.8 -7.8 -4.4
ЮВ 4 8 км дымка 10/10 120 м -5.0 -6.0 93 -12 -12 873.1
ЮВ 4 10 км дымка 10/10 120 м -5.0 -6.1 92 -12 -12 1024.3 873.4
Ю 4 14 км 10/10 180 м -6.0 -6.0 100 -13 -13 874.0
Ю 4 16 км 10/10 180 м -5.0 -6.1 92 -12 -12 1025.0 874.0
ЮВ 2 16 км 8/8 240 м -6.1 -7.2 92 -11 -11 1025.4 874.3
Местоположение метеостанции Clovis Municipal Airport: широта 34.4333 долгота -103.0833 высота над уровнем моря 1285 м.
В архиве по умолчанию представлена погода в Кловисе за последние 1-2 суток. Обновление информации о фактической погоде в базе происходит ежечасно! Архивные данные за месяц целиком и за предыдущие месяцы Вы можете получить, выбрав интересующий диапазон дат из раскрывающегося списка и нажав кнопку "Ввод!".
Внимание! Архив погоды МЕТАР в базе сайта по станциям, не включенным в климатический монитор, хранится не более 60 дней. Нет смысла пытаться выбрать более раннюю дату.
*Определитесь, кто Вы:
Внимание! Время в таблицах - местное (без учета летнего времени). Для получения всемирного времени необходимо вычесть поправку, которая равна -7 ч.
Смотрите также архив погоды в соседних городах и на ближайших метеорологических станциях:
Партнеры нашего сайта:      
Пояснения к столбцам:
  • Ветер - указаны скорость ветра в м/с - средняя за 10 мин, порывы в срок и между сроками (в фигурных скобках) и направление, откуда дует ветер: С - северный,
  • СВ - северо-восточный, В - восточный, ЮВ - юго-восточный, Ю - южный, ЮЗ - юго-западный, З - западный, СЗ - северо-западный.
  • Видимость - горизонтальная дальность видимости в метрах или километрах. При видимости от 1 до 10 км при отсутствии осадков обычно наблюдается дымка, при ухудшении видимости до 1 км и менее - туман. В сухую погоду видимость может ухудшаться дымом, пылью или мглою.
  • Явления - указаны атмосферные явления, наблюдавшиеся в срок или в последний час перед сроком; фигурными скобками обозначены явления, наблюдавшиеся между сроками (за 1-3 часа до срока); квадратными скобками обозначены град или гололедные отложения с указанием их диаметра в мм.
  • Облачность - указаны через наклонную черту общая и нижняя облачность в баллах и высота нижней границы облаков в метрах; квадратными скобками обозначены формы облаков: Ci - перистые, Cs - перисто-слоистые, Cc - перисто-кучевые, Ac - высококучевые, As - высокослоистые, Sc - слоисто-кучевые, Ns - слоисто-дождевые, Cu - кучевые, Cb - кучево-дождевые. Подробнее классификацию облаков см. в Атласе облаков (PDF).
  • T - Температура воздуха - температура, измеренная на высоте 2 м над землей.
  • Td - Температура точки росы - температура, при понижении до которой содержащийся в воздухе водяной пар достигнет насыщения.
  • f - Относительная влажность воздуха - влажноcть воздуха, измеренная на высоте 2 м над землей.
  • Te - Эффективная температура - температура, которую ощущает одетый по сезону человек в тени. Характеристика душности погоды. При расчете учитывается влияние влажности воздуха и скорости ветра на теплоощущения человека.
  • Tes - Эффективная температура на солнце - температура, которую ощущает человек, с поправкой на солнечный нагрев. Характеристика знойности погоды. Зависит от высоты солнца над горизонтом, облачности и скорости ветра. Ночью, в пасмурную погоду, а также при ветре 12 м/с и более поправка равна нулю.
  • P - Атмосферное давление - приведенное к уровню моря атмосферное давление.
  • Po - Атмосферное давление - измеренное на уровне метеостанции атмосферное давление.
  • Tmin - Минимальная температура - минимум температуры воздуха на высоте 2 м над землей.
  • Tmax - Максимальная температура - максимум температуры воздуха на высоте 2 м над землей.
  • R - Количество осадков - Количество выпавших осадков за период времени, мм. При наведении курсора мыши на число - период времени, за который выпало указанное количество осадков.
  • R24 - Количество осадков - Количество выпавших осадков за 24 часа, мм.
  • S - Снежный покров - Высота снежного покрова, см. При наведении курсора мыши на число - состояние снежного покрова и степень покрытия местности в баллах.